CW4098 Weather Reports


time (UTC)temp
C
wind
direction
speed
KPH
gust
KPH
rain 1hr
cm
rain 24hr
cm
rain mn
cm
humidity
%
barometer
mb
20260506002119 20 174 4.8 24.1 0.00 0.84 0.43 39 1011.1
20260506001118 20 178 6.4 20.9 0.00 0.84 0.43 41 1011.1
20260506000118 20 166 9.7 24.1 0.00 0.84 0.43 40 1011.1
20260505235118 21 154 16.1 22.5 0.00 0.84 0.43 37 1011.3
20260505234118 21 116 6.4 25.7 0.00 0.84 0.43 37 1011.3
20260505233118 22 138 11.3 29.0 0.00 0.84 0.43 36 1011.5
20260505232118 21 169 14.5 27.4 0.00 0.84 0.43 34 1011.0
20260505231117 22 156 9.7 24.1 0.00 0.84 0.43 35 1011.5
20260505230117 21 126 9.7 27.4 0.00 0.84 0.43 34 1011.2
20260505225117 21 113 12.9 29.0 0.00 0.84 0.43 34 1011.2
20260505224118 21 145 11.3 27.4 0.00 0.84 0.43 35 1011.3
20260505223117 22 170 8.0 25.7 0.00 0.84 0.43 35 1011.6
20260505222117 22 142 6.4 17.7 0.00 0.84 0.43 35 1011.8
20260505221117 22 130 4.8 25.7 0.00 0.84 0.43 36 1011.9
20260505220117 21 184 11.3 22.5 0.00 0.84 0.43 37 1011.7
20260505215116 22 156 9.7 25.7 0.00 0.84 0.43 36 1012.0
20260505214116 20 178 8.0 19.3 0.00 0.84 0.43 39 1011.7
20260505213116 21 132 8.0 22.5 0.00 0.84 0.43 42 1011.8
20260505212116 21 163 11.3 24.1 0.00 0.84 0.43 44 1011.9
20260505210116 21 149 16.1 22.5 0.00 0.84 0.43 47 1012.6
20260505204115 22 164 12.9 24.1 0.00 0.84 0.43 49 1012.6
20260505203115 20 139 12.9 27.4 0.00 0.84 0.43 50 1012.1
20260505202116 21 122 11.3 25.7 0.00 0.84 0.43 50 1012.2
20260505200115 21 150 8.0 27.4 0.00 0.84 0.43 49 1012.3
20260505195115 20 92 4.8 20.9 0.00 0.84 0.43 56 1012.1
20260505194115 20 139 6.4 14.5 0.00 0.84 0.43 58 1012.3
20260505193145 20 116 4.8 16.1 0.00 0.84 0.43 57 1012.3
20260505192115 19 135 6.4 16.1 0.00 0.84 0.43 60 1012.4
20260505191144 18 134 6.4 17.7 0.00 0.84 0.43 63 1012.3
20260505185115 19 143 3.2 16.1 0.00 0.84 0.43 62 1012.8
20260505184114 19 71 6.4 14.5 0.00 0.84 0.43 66 1013.1
20260505183114 18 101 8.0 11.3 0.00 0.84 0.43 67 1012.8
20260505182114 18 85 8.0 12.9 0.00 0.84 0.43 67 1012.9
20260505181114 17 131 6.4 12.9 0.00 0.84 0.43 68 1012.7
20260505180143 17 131 4.8 12.9 0.00 0.84 0.43 66 1012.7
20260505175113 17 126 12.9 12.9 0.00 0.84 0.43 71 1012.8
20260505174143 17 76 9.7 16.1 0.00 0.84 0.43 71 1012.7
20260505173113 17 51 3.2 12.9 0.00 0.84 0.43 70 1012.7
20260505172113 17 116 8.0 12.9 0.00 0.84 0.43 71 1012.7
20260505171143 17 172 1.6 12.9 0.00 0.84 0.43 73 1012.7
20260505170143 17 149 1.6 12.9 0.00 0.84 0.43 75 1012.7
20260505165113 15 120 3.2 11.3 0.00 0.84 0.43 77 1012.3
20260505164143 15 118 4.8 16.1 0.00 0.84 0.43 80 1012.0
20260505163112 15 97 1.6 11.3 0.00 0.84 0.43 81 1012.0
20260505162112 15 125 4.8 12.9 0.00 0.84 0.43 81 1012.0
20260505161142 15 112 12.9 12.9 0.00 0.84 0.43 80 1011.9
20260505160112 15 110 4.8 9.7 0.00 0.84 0.43 82 1012.0
20260505152141 15 125 4.8 11.3 0.00 0.84 0.43 83 1011.8
20260505151141 15 127 0.0 8.0 0.00 0.84 0.43 84 1011.7
20260505150111 15 143 3.2 9.7 0.00 0.84 0.43 86 1011.7
20260505130140 13 182 0.0 0.0 0.00 0.84 0.43 92 1010.5
20260505123139 13 182 0.0 0.0 0.00 0.84 0.43 91 1011.0
20260505121139 13 182 0.0 0.0 0.00 0.84 0.43 91 1010.9
20260505120139 13 182 0.0 0.0 0.00 0.84 0.43 92 1010.9
20260505115138 13 182 0.0 0.0 0.03 0.84 0.43 92 1010.9
20260505114108 13 182 0.0 0.0 0.03 0.84 0.43 92 1011.3
20260505113138 13 182 0.0 0.0 0.03 0.84 0.43 92 1011.3
20260505111108 13 182 0.0 1.6 0.05 0.84 0.43 92 1011.3
20260505110138 13 182 0.0 4.8 0.05 0.84 0.43 93 1011.3
20260505102137 13 82 0.0 0.0 0.03 0.79 0.38 93 1012.6
20260505101137 13 82 0.0 0.0 0.05 0.79 0.38 93 1012.5
20260505100137 13 82 0.0 0.0 0.10 0.79 0.38 93 1012.5
20260505094137 13 82 0.0 0.0 0.10 0.76 0.36 93 1012.6
20260505093137 13 82 0.0 0.0 0.13 0.76 0.36 93 1012.6
20260505091125 13 82 0.0 3.2 0.15 0.74 0.33 93 1013.1
20260505090124 13 82 0.0 6.4 0.10 0.69 0.28 92 1013.4
20260505085123 13 93 6.4 12.9 0.10 0.66 0.25 92 1013.7
20260505084123 13 105 11.3 16.1 0.13 0.66 0.25 92 1014.5
20260505083123 13 116 9.7 16.1 0.15 0.64 0.23 92 1014.5
20260505082123 13 103 6.4 12.9 0.18 0.64 0.23 92 1014.3
20260505081123 13 74 3.2 11.3 0.15 0.58 0.18 92 1014.9
20260505075123 13 82 6.4 11.3 0.18 0.56 0.15 92 1015.0
20260505074123 13 92 9.7 11.3 0.18 0.53 0.13 92 1015.3
20260505073123 13 62 6.4 9.7 0.15 0.48 0.08 92 1015.3
20260505072122 13 76 3.2 8.0 0.15 0.46 0.05 92 1015.1
20260505071122 13 81 3.2 9.7 0.18 0.43 0.03 92 1015.3
20260505070122 13 84 0.0 9.7 0.15 0.41 0.00 91 1015.3
20260505065122 13 72 6.4 8.0 0.15 0.38 0.38 91 1015.1
20260505064122 13 74 1.6 8.0 0.13 0.36 0.36 91 1015.4
20260505063122 13 74 3.2 6.4 0.10 0.33 0.33 90 1015.4
20260505062121 13 105 0.0 6.4 0.08 0.30 0.30 90 1015.4
20260505061121 13 183 0.0 4.8 0.03 0.25 0.25 90 1015.3
20260505060121 13 183 0.0 0.0 0.05 0.25 0.25 90 1015.3
20260505055121 13 183 0.0 0.0 0.03 0.23 0.23 90 1014.7
20260505054121 13 183 0.0 0.0 0.05 0.23 0.23 89 1014.9
20260505053121 13 183 0.0 3.2 0.05 0.23 0.23 89 1014.9
20260505052121 13 183 0.0 4.8 0.08 0.23 0.23 89 1014.5
20260505051121 13 183 0.0 6.4 0.13 0.23 0.23 88 1014.4
20260505050121 13 98 0.0 12.9 0.10 0.20 0.20 87 1014.4
20260505040120 14 107 0.0 11.3 0.03 0.10 0.10 78 1014.4
20260505035120 14 184 0.0 8.0 0.03 0.10 0.10 80 1014.0
20260505034120 14 185 0.0 9.7 0.03 0.10 0.10 81 1013.4
20260505033120 14 149 0.0 6.4 0.03 0.10 0.10 83 1013.4
20260505032120 13 140 0.0 12.9 0.00 0.08 0.08 82 1013.0
20260505025119 14 101 1.6 11.3 0.03 0.08 0.08 76 1013.1
20260505024119 14 108 9.7 22.5 0.05 0.08 0.08 75 1012.5
20260505023119 13 76 4.8 20.9 0.08 0.08 0.08 76 1012.5
20260505022119 13 57 8.0 20.9 0.08 0.08 0.08 76 1012.9
20260505021118 14 51 11.3 22.5 0.08 0.08 0.08 74 1013.5
20260505020118 14 68 3.2 14.5 0.05 0.05 0.05 73 1013.5
20260505015118 15 85 3.2 9.7 0.05 0.05 0.05 74 1013.3
20260505014118 15 90 6.4 16.1 0.03 0.03 0.03 65 1013.4
20260505012118 17 96 19.3 32.2 0.00 0.00 0.00 51 1013.2
20260505011118 18 91 19.3 27.4 0.00 0.00 0.00 48 1013.2
20260505010148 18 77 1.6 27.4 0.00 0.00 0.00 44 1013.3
20260505005118 19 86 14.5 19.3 0.00 0.00 0.00 44 1012.9
20260505004118 19 117 6.4 16.1 0.00 0.00 0.00 43 1012.9
20260505003117 20 129 8.0 20.9 0.00 0.00 0.00 44 1013.2